{"data":{"norad_id":52671,"intl_designator":"2022-053R","name":"STARLINK-4071","alt_names":[],"object_type":"PAYLOAD","status":"ACTIVE","operator":null,"country":"US","launch_date":"2022-05-18","launch_site_code":"AFETR","launch_vehicle":null,"mission":null,"orbit_class":"UNKNOWN","rcs_meters":null,"size_class":null,"mass_kg":null,"dimensions":null,"purposes":["comms"],"wikipedia_slug":null,"has_3d_model":false,"image_url":null,"decayed_at":null,"tle_current":{"epoch":"2026-05-25T02:01:35.863104Z","epoch_age_seconds":64417,"freshness":"FRESH","line1":"1 52671U 22053R   26145.08444286  .00000321  00000+0  38259-4 0  9993","line2":"2 52671  53.2146 171.1700 0001024  97.5959 262.5149 15.08839372222575","mean_motion":15.08839372,"eccentricity":0.0001024,"inclination_deg":53.2146,"raan_deg":171.17,"arg_perigee_deg":97.5959,"mean_anomaly_deg":262.5149,"bstar":3.8259e-5,"rev_number":22257,"period_min":95.437594400208,"perigee_km":539.03691736114,"apogee_km":540.45369965793,"semimajor_km":6917.8823085095,"source":"CELESTRAK","updated_at":"2026-05-25T13:38:17.232423Z"}}}